This demonstration page uses our WeatherBlox Daily Observations layout. Learn more.

Left ArrowRight Arrow

53.62937, 11.41316

Hourly Observations for October 1, 2022

Temp ( °F °C ) Dew Point ( °F °C ) Humidity (%) Winds ( mph kmh ) Pressure ( in mb ) Visibility ( mi km ) Precip ( " mm )
12:20 am 00:20 Clear 50 10 43 6 76 76 SSE 5 7 29.74 1007 6 10 0.00 0.00
12:50 am 00:50 Clear 50 10 43 6 76 76 SSE 5 7 29.74 1007 6 10 0.00 0.00
1:20 am 01:20 Clear 50 10 43 6 76 76 SSE 5 7 29.74 1007 6 10 0.00 0.00
1:50 am 01:50 Clear 48 9 43 6 81 81 SSE 5 7 29.71 1006 6 10 0.00 0.00
2:20 am 02:20 Clear 48 9 43 6 81 81 SSE 5 7 29.71 1006 6 10 0.00 0.00
2:50 am 02:50 Mostly Clear 48 9 43 6 81 81 SSE 5 7 29.71 1006 6 10 0.00 0.00
3:20 am 03:20 Mostly Clear 50 10 43 6 76 76 S 6 9 29.68 1005 6 10 0.00 0.00
3:50 am 03:50 Clear 50 10 43 6 76 76 S 7 11 29.68 1005 6 10 0.00 0.00
4:20 am 04:20 Clear 50 10 43 6 76 76 VRB 6 9 29.65 1004 6 10 0.00 0.00
4:50 am 04:50 Mostly Clear 50 10 43 6 76 76 S 6 9 29.65 1004 6 10 0.00 0.00
5:20 am 05:20 Mostly Cloudy 50 10 43 6 76 76 S 7 11 29.65 1004 6 10 0.00 0.00
5:50 am 05:50 Mostly Clear 50 10 43 6 76 76 VRB 7 11 29.62 1003 6 10 0.00 0.00
6:20 am 06:20 Mostly Clear 50 10 43 6 76 76 S 6 9 29.62 1003 6 10 0.00 0.00
6:50 am 06:50 Mostly Clear 50 10 43 6 76 76 S 7 11 29.62 1003 6 10 0.00 0.00
7:20 am 07:20 Mostly Cloudy with Light Rain 50 10 45 7 82 82 S 7 11 29.59 1002 6 10 0.00 0.00
7:50 am 07:50 Partly Cloudy with Light Rain 50 10 45 7 82 82 S 7 11 29.59 1002 6 10 0.00 0.00
8:20 am 08:20 Partly Cloudy with Light Rain 48 9 46 8 93 93 S 7 11 29.56 1001 6 10 0.00 0.00
8:50 am 08:50 Mostly Cloudy with Light Rain 48 9 46 8 93 93 S 9 15 29.56 1001 6 10 0.00 0.00
9:20 am 09:20 Mostly Cloudy with Light Rain 48 9 46 8 93 93 S 8 13 29.56 1001 6 10 0.00 0.00
9:50 am 09:50 Mostly Cloudy with Light Rain 48 9 46 8 93 93 S 7 11 29.53 1000 5 8 0.00 0.00
10:20 am 10:20 Mostly Cloudy with Light Rain 48 9 48 9 100 100 S 8 13 29.53 1000 4 7 0.00 0.00
10:50 am 10:50 Mostly Cloudy with Light Rain 50 10 48 9 93 93 S 7 11 29.53 1000 6 10 0.00 0.00
11:20 am 11:20 Mostly Cloudy with Light Rain 50 10 48 9 93 93 S 8 13 29.50 999 5 8 0.00 0.00
11:50 am 11:50 Mostly Cloudy with Light Rain 50 10 48 9 93 93 S 8 13 29.50 999 6 10 0.00 0.00
12:20 pm 12:20 Mostly Cloudy with Light Rain 50 10 50 10 100 100 VRB 6 9 29.50 999 3 4 0.00 0.00
12:50 pm 12:50 Mostly Cloudy with Light Rain 52 11 50 10 94 94 VRB 5 7 29.50 999 6 10 0.00 0.00
1:20 pm 13:20 Mostly Cloudy 52 11 52 11 100 100 VRB 5 7 29.50 999 6 10 0.00 0.00
1:50 pm 13:50 Mostly Cloudy 55 13 54 12 94 94 VRB 6 9 29.50 999 6 10 0.00 0.00
2:20 pm 14:20 Mostly Cloudy 57 14 54 12 88 88 VRB 6 9 29.53 1000 6 10 0.00 0.00
2:50 pm 14:50 Partly Cloudy 61 16 55 13 82 82 VRB 6 9 29.50 999 6 10 0.00 0.00
3:20 pm 15:20 Mostly Cloudy with Showers Nearby 59 15 54 12 82 82 VRB 7 11 29.53 1000 6 10 0.00 0.00
3:50 pm 15:50 Partly Cloudy with Nearby Thunderstorms 57 14 54 12 88 88 VRB 6 9 29.53 1000 6 10 0.00 0.00
4:20 pm 16:20 Partly Cloudy with Showers Nearby 57 14 54 12 88 88 W 7 11 29.53 1000 6 10 0.00 0.00
4:50 pm 16:50 Mostly Sunny 57 14 52 11 82 82 W 9 15 29.56 1001 6 10 0.00 0.00
5:20 pm 17:20 Mostly Sunny 59 15 52 11 77 77 W 8 13 29.56 1001 6 10 0.00 0.00
5:50 pm 17:50 Mostly Sunny 57 14 52 11 82 82 VRB 6 9 29.56 1001 6 10 0.00 0.00
6:20 pm 18:20 Mostly Cloudy with Showers Nearby 55 13 52 11 88 88 VRB 5 7 29.59 1002 6 10 0.00 0.00
6:50 pm 18:50 Mostly Cloudy with Showers Nearby 55 13 52 11 88 88 W 7 11 29.59 1002 6 10 0.00 0.00
7:20 pm 19:20 Mostly Cloudy with Showers Nearby 55 13 52 11 88 88 W 8 13 29.62 1003 6 10 0.00 0.00
7:50 pm 19:50 Mostly Clear 54 12 52 11 94 94 W 6 9 29.62 1003 6 10 0.00 0.00
8:20 pm 20:20 Mostly Clear 54 12 52 11 94 94 W 6 9 29.65 1004 6 10 0.00 0.00
8:50 pm 20:50 Mostly Clear 54 12 52 11 94 94 W 6 9 29.68 1005 6 10 0.00 0.00
9:20 pm 21:20 Mostly Clear 52 11 52 11 100 100 WSW 5 7 29.68 1005 6 10 0.00 0.00
10:20 pm 22:20 Mostly Cloudy 54 12 52 11 94 94 W 6 9 29.71 1006 6 10 0.00 0.00
10:50 pm 22:50 Partly Cloudy 54 12 52 11 94 94 W 8 13 29.71 1006 6 10 0.00 0.00
11:20 pm 23:20 Mostly Cloudy 54 12 52 11 94 94 W 8 13 29.73 1007 6 10 0.00 0.00
11:50 pm 23:50 Mostly Cloudy 54 12 52 11 94 94 W 8 13 29.73 1007 6 10 0.00 0.00

Powered by AerisWeather